Regional Weather Roundup
Issued by NWS Sterling, VA

Current Version | Previous Version | Text Only | Print | Product List | Glossary On
Versions: 1 2 3 4 5 6 7 8 9 10 11 12 13 14 15 16 17 18 19 20 21 22 23 24 25 26 27 28 29 30 31 32 33 34 35 36 37 38 39 40 41 42 43 44 45 46 47 48 49 50
000
ASUS41 KLWX 110310
RWRLWX

REGIONAL WEATHER ROUNDUP
NATIONAL WEATHER SERVICE BALTIMORE MD/WASHINGTON DC
1100 PM EDT THU JUL 10 2014

Note: "FAIR" indicates few or no clouds below 12,000 feet
with no significant weather and/or obstructions to visibility.
 TC=TEMPERATURE CELSIUS

 * =Non NWS site. Station does not report precipitation (e.g. rain,
    snow, etc.), thunder, or fog.

DCZ001-MDZ009-015-VAZ040>042-051-053>054-110400-
WASHINGTON METRO

CITY           SKY/WX    TMP DP  RH WIND       PRES   REMARKS
WASHINGTON NAT CLOUDY    72  65  78 SW3       30.11F
DULLES         MOCLDY    68  66  93 CALM      30.13R
ANDREWS AFB    CLOUDY    68  66  94 SE3       30.10F
FT BELVOIR     CLOUDY    68  67  96 NW1       30.11F
QUANTICO       RAIN      69  64  84 N5        30.12F
COLLEGE PARK*  CLOUDY    72  70  94 N5        30.12R
LEESBURG*      MOCLDY    70  68  94 CALM      30.15R
MANASSAS*      MOCLDY   N/A N/A N/A MISG        N/A
GAITHERSBURG*  PTCLDY    66  63  88 NE3       30.18R

$$

MDZ006>007-011-014-110400-
BALTIMORE METRO

CITY           SKY/WX    TMP DP  RH WIND       PRES   REMARKS
BWI AIRPORT    CLOUDY    74  68  81 NE5       30.12F
MD SCIENCE CTR   N/A     74  64  71 MISG      30.13R
MARTIN STATE   CLOUDY    73  70  88 CALM      30.14S
ANNAPOLIS      LGT RAIN  74  70  87 NE5       30.12R
FORT MEADE*    CLOUDY    70  68  94 CALM      30.14F

$$

MDZ012-015-019>023-110400-
MARYLAND EASTERN SHORE

CITY           SKY/WX    TMP DP  RH WIND       PRES   REMARKS
OCEAN CITY     CLOUDY    71  69  93 NW5       30.09R
SALISBURY      CLOUDY    73  69  87 NW5       30.09S
BAY BRIDGE AP* LGT RAIN  70  68  94 E3        30.12R
CAMBRIDGE*     CLOUDY    72  68  88 CALM      30.10S
EASTON*        CLOUDY    70  70 100 CALM      30.16R FOG

$$

MDZ017>025-110400-
SOUTHERN MARYLAND

CITY           SKY/WX    TMP DP  RH WIND       PRES   REMARKS
PATUXENT RIVER LGT RAIN  71  68  90 S6        30.10S
ST INIGOES     LGT RAIN  71  67  87 SW6       30.09F FOG
LEONARDTOWN*   CLOUDY    70  64  83 SW5       30.12S

$$

MDZ003>005-110400-
NORTH CENTRAL MARYLAND

CITY           SKY/WX    TMP DP  RH WIND       PRES   REMARKS
FREDERICK*     PTCLDY    68  68 100 CALM      30.16S
HAGERSTOWN APT CLOUDY    72  60  66 E6        30.16R
WESTMINSTER*   PTCLDY    68  63  83 CALM      30.50R

$$

MDZ501>502-110400-
WESTERN MARYLAND

CITY           SKY/WX    TMP DP  RH WIND       PRES   REMARKS
OAKLAND*       PTCLDY    61  61 100 E7        30.23R
CUMBERLAND*    PTCLDY    64  63  94 CALM      30.20R

$$

VAZ025>031-110400-
SHENANDOAH VALLEY

CITY           SKY/WX    TMP DP  RH WIND       PRES   REMARKS
WINCHESTER*    CLOUDY    70  68  94 CALM      30.15R
STAUNTON*      CLOUDY    67  64  90 CALM      30.19R

$$

WVZ021-048>050-054>055-110400-
EASTERN WEST VIRGINIA PANHANDLE

CITY           SKY/WX    TMP DP  RH WIND       PRES   REMARKS
MARTINSBURG    CLOUDY    74  62  66 CALM      30.16R
PETERSBURG*    CLEAR     63  59  87 CALM      30.18R FOG

$$

VAZ036>039-050-110400-
CENTRAL FOOTHILLS

CITY           SKY/WX    TMP DP  RH WIND       PRES   REMARKS
CHARLOTTESVILL CLOUDY    72  68  87 NE5       30.14R
ORANGE*        CLOUDY    72  64  78 CALM      30.15R

$$

VAZ055>057-110400-
NORTH AND CENTRAL PIEDMONT

CITY           SKY/WX    TMP DP  RH WIND       PRES   REMARKS
FREDERICKSBRG* MOCLDY    73  63  72 NW5       30.12R
STAFFORD*      MOCLDY    68  68 100 CALM      30.16S

$$

NCZ024-NYZ072-PAZ021-071-VAZ022-071-110400-
OTHER REGIONAL OBSERVATIONS

CITY           SKY/WX    TMP DP  RH WIND       PRES   REMARKS
NEW YORK CITY  CLOUDY    75  62  64 CALM      30.16R
PHILADELPHIA   CLOUDY    75  62  64 E7        30.14R
PITTSBURGH     PTCLDY    72  56  57 E5        30.15R
ROANOKE        CLOUDY    74  67  78 E8        30.16R
RICHMOND       MOCLDY    73  69  87 CALM      30.11S
RALEIGH        CLOUDY    72  69  90 SW6       30.11R

$$

ANZ530>537-110400-
MARINE OBSERVATIONS

STATION/POSITION TIME  TEMP    WIND        PRES
                       AIR SEA DIR/SP/G
                 (UTC) (F)     (DEG/KT/KT) (MB)
THOMAS PT LIGHT  0300   74 79   CALM  /  2 1020.3R
BALT KEY BRIDGE  0300   76     360/ 11/ 12 1019.9S
COVE POINT       0300   72     210/  8/ 10 1019.1F
LEWISETTA        0300   74 79  250/  5/  6 1019.2S
SOLOMONS ISLAND  0300      79                N/A
PINEY POINT      0300           90/  5/  7   N/A

$$




USA.gov is the U.S. government's official web portal to all federal, state and local government web resources and services.